HB9FVK-10 Weather Reports


time (UTC)temp
F
wind
direction
speed
knots
gust
knots
rain 1hr
in
rain 24hr
in
rain mn
in
humidity
%
barometer
mb
20260502232043 57 121 1.7 1.7 0.00 0.00 0.00 76 1022.4
20260502231020 57 115 2.6 3.5 0.00 0.00 0.00 75 1022.3
20260502230019 58 126 3.5 4.3 0.00 0.00 0.00 73 1022.3
20260502225018 59 166 2.6 3.5 0.00 0.00 0.00 73 1022.3
20260502224017 59 139 3.5 4.3 0.00 0.00 0.00 73 1022.3
20260502223016 59 154 1.7 3.5 0.00 0.00 0.00 72 1022.3
20260502222155 60 130 2.6 4.3 0.00 0.00 0.00 72 1022.3
20260502221114 60 171 1.7 2.6 0.00 0.00 0.00 71 1022.3
20260502220112 61 117 3.5 3.5 0.00 0.00 0.00 70 1022.2
20260502215111 62 136 1.7 2.6 0.00 0.00 0.00 67 1022.2
20260502214110 62 169 0.9 1.7 0.00 0.00 0.00 67 1022.1
20260502213109 62 176 0.9 1.7 0.00 0.00 0.00 69 1022.1
20260502212107 62 83 1.7 2.6 0.00 0.00 0.00 68 1022.0
20260502211106 63 72 1.7 2.6 0.00 0.00 0.00 67 1022.1
20260502210125 63 160 2.6 4.3 0.00 0.00 0.00 65 1022.0
20260502205104 63 151 2.6 3.5 0.00 0.00 0.00 65 1021.9
20260502204102 63 160 3.5 3.5 0.00 0.00 0.00 63 1022.0
20260502203101 64 158 0.9 1.7 0.00 0.00 0.00 62 1022.0
20260502202100 64 0.0 0.9 0.00 0.00 0.00 64 1022.0
20260502201100 64 39 0.9 1.7 0.00 0.00 0.00 64 1022.0
20260502200057 64 71 1.7 3.5 0.00 0.00 0.00 64 1022.0
20260502195056 66 178 2.6 3.5 0.00 0.00 0.00 59 1021.8
20260502194055 66 170 4.3 5.2 0.00 0.00 0.00 61 1021.8
20260502193054 66 114 1.7 2.6 0.00 0.00 0.00 62 1021.9
20260502192052 67 125 2.6 3.5 0.00 0.00 0.00 60 1021.8
20260502191051 67 169 3.5 4.3 0.00 0.00 0.00 59 1021.8
20260502190111 67 142 2.6 4.3 0.00 0.00 0.00 59 1021.7
20260502185048 68 105 2.6 5.2 0.00 0.00 0.00 57 1021.7
20260502184108 68 154 0.9 1.7 0.00 0.00 0.00 58 1021.5
20260502183047 70 99 2.6 5.2 0.00 0.00 0.00 56 1021.4
20260502182045 71 120 1.7 2.6 0.00 0.00 0.00 53 1021.5
20260502181045 72 154 0.0 1.7 0.00 0.00 0.00 52 1021.5
20260502164053 80 120 0.9 1.7 0.00 0.00 0.00 34 1021.5
20260502163032 80 211 0.9 1.7 0.00 0.00 0.00 34 1021.6
20260502162031 80 240 0.9 1.7 0.00 0.00 0.00 33 1021.8
20260502161030 79 41 0.9 2.6 0.00 0.00 0.00 34 1021.9
20260502152044 79 311 2.6 4.3 0.00 0.00 0.00 34 1022.3
20260502151023 77 359 1.7 3.5 0.00 0.00 0.00 34 1022.5
20260502140115 77 251 1.7 3.5 0.00 0.00 0.00 34 1023.4
20260502130108 76 241 3.5 4.3 0.00 0.00 0.00 38 1024.3
20260502123105 75 267 2.6 5.2 0.00 0.00 0.00 39 1024.6
20260502122124 75 238 1.7 4.3 0.00 0.00 0.00 39 1024.8
20260502121102 75 206 3.5 4.3 0.00 0.00 0.00 39 1024.8
20260502115100 74 222 2.6 3.5 0.00 0.00 0.00 39 1025.3
20260502114119 75 173 3.5 6.1 0.00 0.00 0.00 41 1025.3
20260502113058 73 344 1.7 4.3 0.00 0.00 0.00 41 1025.6
20260502112057 73 2 1.7 4.3 0.00 0.00 0.00 41 1025.7
20260502111056 73 73 2.6 5.2 0.00 0.00 0.00 44 1026.0
20260502110055 73 119 1.7 3.5 0.00 0.00 0.00 44 1026.1
20260502105054 72 95 1.7 3.5 0.00 0.00 0.00 45 1026.3
20260502104052 70 24 1.7 3.5 0.00 0.00 0.00 45 1026.4
20260502103111 70 93 3.5 5.2 0.00 0.00 0.00 47 1026.5
20260502102050 71 69 2.6 5.2 0.00 0.00 0.00 46 1026.7
20260502101049 69 70 1.7 2.6 0.00 0.00 0.00 47 1026.9
20260502100108 69 83 2.6 3.5 0.00 0.00 0.00 48 1027.0
20260502091042 66 15 2.6 4.3 0.00 0.00 0.00 53 1027.6
20260502071028 57 91 0.9 2.6 0.00 0.00 0.00 64 1028.3
20260502070048 57 92 2.6 4.3 0.00 0.00 0.00 65 1028.4
20260502065026 56 94 3.5 4.3 0.00 0.00 0.00 68 1028.5
20260502064025 55 112 1.7 3.5 0.00 0.00 0.00 71 1028.5
20260502063024 54 94 1.7 3.5 0.00 0.00 0.00 71 1028.5
20260502062022 53 122 2.6 3.5 0.00 0.00 0.00 71 1028.5
20260502061021 52 108 3.5 3.5 0.00 0.00 0.00 73 1028.5
20260502060021 51 117 2.6 3.5 0.00 0.00 0.00 75 1028.6
20260502055019 49 141 2.6 3.5 0.00 0.00 0.00 77 1028.5
20260502054018 48 145 2.6 4.3 0.00 0.00 0.00 79 1028.5
20260502053017 48 134 2.6 5.2 0.00 0.00 0.00 80 1028.5
20260502052115 47 42 2.6 5.2 0.00 0.00 0.00 82 1028.5
20260502051115 46 169 0.9 3.5 0.00 0.00 0.00 83 1028.4
20260502050114 46 148 3.5 7.0 0.00 0.00 0.00 82 1028.3
20260502045133 46 155 1.7 2.6 0.00 0.00 0.00 83 1028.5
20260502044111 45 114 4.3 5.2 0.00 0.00 0.00 85 1028.3
20260502043110 45 147 3.5 5.2 0.00 0.00 0.00 85 1028.2
20260502042129 45 150 2.6 5.2 0.00 0.00 0.00 85 1028.2
20260502041108 45 156 2.6 3.5 0.00 0.00 0.00 85 1028.3
20260502040107 45 52 3.5 5.2 0.00 0.00 0.00 85 1028.3
20260502035106 45 136 1.7 3.5 0.00 0.00 0.00 85 1028.3
20260502034105 45 144 3.5 6.1 0.00 0.00 0.00 85 1028.2
20260502033103 45 131 3.5 6.1 0.00 0.00 0.00 85 1028.3
20260502032102 45 128 1.7 2.6 0.00 0.00 0.00 86 1028.2
20260502031102 45 147 2.6 4.3 0.00 0.00 0.00 85 1028.2
20260502030100 45 144 2.6 3.5 0.00 0.00 0.00 85 1028.2
20260502025059 46 141 2.6 3.5 0.00 0.00 0.00 84 1028.2
20260502024058 46 134 3.5 4.3 0.00 0.00 0.00 84 1028.3
20260502023057 46 138 2.6 3.5 0.00 0.00 0.00 84 1028.3
20260502022055 46 131 1.7 2.6 0.00 0.00 0.00 84 1028.3
20260502021054 46 120 2.6 3.5 0.00 0.00 0.00 84 1028.3
20260502020114 46 125 2.6 3.5 0.00 0.00 0.00 83 1028.2
20260502015052 46 131 2.6 3.5 0.00 0.00 0.00 82 1028.2
20260502014051 47 117 2.6 3.5 0.00 0.00 0.00 82 1028.2
20260502013110 47 141 1.7 2.6 0.00 0.00 0.00 80 1028.2
20260502012048 47 145 2.6 3.5 0.00 0.00 0.00 81 1028.1
20260502011047 47 135 2.6 2.6 0.00 0.00 0.00 83 1028.3
20260502010046 46 111 1.7 2.6 0.00 0.00 0.00 83 1028.2
20260502005045 46 118 0.9 1.7 0.00 0.00 0.00 82 1028.1
20260502004043 47 115 1.7 2.6 0.00 0.00 0.00 81 1028.2
20260502003102 48 109 1.7 2.6 0.00 0.00 0.00 81 1028.2
20260502002042 48 104 1.7 1.7 0.00 0.00 0.00 79 1028.1
20260502001040 48 113 1.7 2.6 0.00 0.00 0.00 77 1028.3
20260502000039 49 119 1.7 1.7 0.00 0.00 0.00 77 1028.3
20260501235058 49 125 1.7 2.6 0.00 0.00 0.00 76 1028.2
20260501234057 49 120 1.7 2.6 0.00 0.00 0.00 74 1028.2
20260501233035 50 129 1.7 1.7 0.00 0.00 0.00 74 1028.2